This is the latest recevied weather packets stored in our database for station/object KC1BRV. If no packets are shown the sender has not sent any weather packets the latest 10 day(s).
| Time | Temp. | Humidity | Pressure | Rain* | Wind** | Luminosity | Snow |
|---|---|---|---|---|---|---|---|
| 1787924959 | 25° C | 81% | 1017.2 hPa | 0 mm | - | 163 W/m² | - |
| 1787924654 | 25° C | 83% | 1017 hPa | 0 mm | - | 166 W/m² | - |
| 1787924348 | 25° C | 83% | 1017.2 hPa | 0 mm | - | 167 W/m² | - |
| 1787924043 | 25° C | 86% | 1017.2 hPa | 0 mm | - | 215 W/m² | - |
| 1787923738 | 25° C | 86% | 1017.4 hPa | 0 mm | - | 165 W/m² | - |
| 1787923434 | 24.44° C | 86% | 1017.2 hPa | 0 mm | - | 125 W/m² | - |
| 1787923128 | 24.44° C | 87% | 1017.1 hPa | 0 mm | - | 151 W/m² | - |
| 1787922823 | 23.89° C | 88% | 1017.2 hPa | 0 mm | - | 221 W/m² | - |
| 1787922523 | 23.89° C | 89% | 1017.1 hPa | 0 mm | - | 147 W/m² | - |
| 1787922229 | 23.89° C | 90% | 1017 hPa | 0 mm | - | 145 W/m² | - |
| 1787921919 | 23.33° C | 91% | 1017.2 hPa | 0 mm | - | 168 W/m² | - |
| 1787921614 | 23.33° C | 93% | 1016.9 hPa | 0 mm | - | 156 W/m² | - |
| 1787921313 | 23.33° C | 95% | 1016.9 hPa | 0 mm | - | 150 W/m² | - |
| 1787921010 | 22.78° C | 96% | 1017.1 hPa | 0 mm | - | 163 W/m² | - |
| 1787920705 | 22.78° C | 97% | 1017.1 hPa | 0 mm | - | 101 W/m² | - |
| 1787920404 | 22.78° C | 98% | 1017 hPa | 0 mm | - | 116 W/m² | - |
| 1787920102 | 22.78° C | 98% | 1017 hPa | 0 mm | - | 145 W/m² | - |
| 1787919797 | 22.78° C | 99% | 1016.8 hPa | 0 mm | - | 133 W/m² | - |
| 1787919496 | 22.78° C | 99% | 1016.9 hPa | 0 mm | - | 92 W/m² | - |
| 1787919192 | 22.22° C | 99% | 1016.7 hPa | 0 mm | - | 96 W/m² | - |
| 1787918892 | 22.22° C | 99% | 1017 hPa | 0 mm | - | 93 W/m² | - |
| 1787918587 | 22.22° C | 99% | 1016.9 hPa | 0 mm | - | 101 W/m² | - |
| 1787918285 | 22.22° C | 99% | 1016.9 hPa | 0 mm | - | 116 W/m² | - |
| 1787917979 | 22.22° C | 99% | 1016.9 hPa | 0 mm | - | 75 W/m² | - |
| 1787917674 | 22.22° C | 99% | 1016.7 hPa | 0 mm | - | 84 W/m² | - |
* Rain latest hour (hover to see other rain measurements)
** Current wind speed in m/s (hover to see current wind gust speed)